Emmalena, KY (41740)

6:13 AM EDT on March 29, 2015 (GMT -0400)
KKYJACKS3 | | Change Station
CLOSE
Current Station
Personal Weather Station
Location: Talbert, KY
Elevation: 994 ft
Nearby Weather Stations

Elev 994 ft 37.41 °N, 83.42 °W | Updated 3 minutes ago

Clear
Clear
19.5 °F
Feels Like 20 °F
N
0.0
Wind Variable Wind from North
Gusts 0.0 mph

Today
High -- | Low -- °F
--% Chance of Precip.
Yesterday
High -- | Low -- °F
Precip. -- in
7:22 AM 7:52 PM
Waxing Gibbous, 70% visible
Pressure 30.37 in
Visibility 10.0 miles
Clouds Clear
Windchill 20 °F
Dew Point 15 °F
Humidity 83%
Rainfall 0.00 in
Snow Depth Not available.
UV 0 out of 12
Pollen 7.00 out of 12
Air Quality Not available.
Flu Activity Not available.
METAR KJKL 290953Z AUTO 12003KT 10SM CLR M04/M13 A3034 RMK AO2 SLP284 T10391128

More Conditions Fewer Conditions

Pressure 30.37 in
Visibility 10.0 miles
Clouds Clear
Windchill 20 °F
Dew Point 15 °F
Humidity 83%
Rainfall 0.00 in
Snow Depth Not available.
UV 0 out of 12
Pollen 7.00 out of 12
Air Quality Not available.
Flu Activity Not available.
METAR KJKL 290953Z AUTO 12003KT 10SM CLR M04/M13 A3034 RMK AO2 SLP284 T10391128

More Conditions Fewer Conditions

10-Day Weather Forecast

Almanac

Astronomy

Mar. 29, 2015 Rise Set
Actual Time
Civil Twilight
Nautical Twilight
Astronomical Twilight
Moon
Length of Visible Light
Length of Day
Tomorrow will be .
, % of the Moon is Illuminated

Today's Extremes

State Highs State Lows

Community

WunderPhotos

Upload Photos

1,809,212 photos uploaded!

WunderBlogs® & News

Nearby

Air Quality

  Air Quality AQ Index Pollutant
Not available.

Snow Depth

Station Depth Elevation

Earthquake Activity

City Distance Mag. Time & Date
Minimum magnitude displayed is 2.5.

Coastal Water Temperatures

Place Temperature

Stations

Nearby Weather Stations

Station Location Temp. Windchill Dew Point Humidity Wind Precip. Elev Updated Type